| time (UTC) | temp F | wind direction | speed MPH | gust MPH | rain 1hr in | rain 24hr in | rain mn in | humidity % | barometer mb |
| 20260503234536 | 69 | 222 | 0.0 | 4.0 | 0.00 | 0.00 | 0.00 | 45 | 1016.3 |
| 20260503233035 | 70 | 224 | 0.0 | 5.0 | 0.00 | 0.00 | 0.00 | 44 | 1016.6 |
| 20260503231545 | 70 | 173 | 3.0 | 11.0 | 0.00 | 0.00 | 0.00 | 42 | 1016.4 |
| 20260503230033 | 72 | 215 | 0.0 | 8.0 | 0.00 | 0.00 | 0.00 | 40 | 1016.4 |
| 20260503224531 | 73 | 249 | 2.0 | 8.0 | 0.00 | 0.00 | 0.00 | 40 | 1016.9 |
| 20260503223029 | 73 | 194 | 2.0 | 10.0 | 0.00 | 0.00 | 0.00 | 39 | 1016.9 |
| 20260503221527 | 73 | 165 | 4.0 | 11.0 | 0.00 | 0.00 | 0.00 | 40 | 1017.1 |
| 20260503220034 | 73 | 209 | 1.0 | 8.0 | 0.00 | 0.00 | 0.00 | 40 | 1017.1 |
| 20260503214522 | 73 | 188 | 3.0 | 8.0 | 0.00 | 0.00 | 0.00 | 40 | 1017.4 |
| 20260503213022 | 74 | 205 | 1.0 | 6.0 | 0.00 | 0.00 | 0.00 | 38 | 1017.8 |
| 20260503211522 | 73 | 205 | 1.0 | 10.0 | 0.00 | 0.00 | 0.00 | 42 | 1018.1 |
| 20260503210017 | 72 | 239 | 1.0 | 5.0 | 0.00 | 0.00 | 0.00 | 39 | 1018.3 |
| 20260503204510 | 73 | 211 | 3.0 | 8.0 | 0.00 | 0.00 | 0.00 | 39 | 1018.6 |
| 20260503203014 | 72 | 286 | 2.0 | 8.0 | 0.00 | 0.00 | 0.00 | 37 | 1018.8 |
| 20260503201510 | 72 | 209 | 3.0 | 7.0 | 0.00 | 0.00 | 0.00 | 40 | 1019.0 |
| 20260503200006 | 72 | 217 | 2.0 | 6.0 | 0.00 | 0.00 | 0.00 | 40 | 1019.1 |
| 20260503194506 | 72 | 187 | 2.0 | 8.0 | 0.00 | 0.00 | 0.00 | 40 | 1019.3 |
| 20260503193059 | 71 | 208 | 2.0 | 7.0 | 0.00 | 0.00 | 0.00 | 38 | 1019.7 |
| 20260503191605 | 71 | 238 | 3.0 | 7.0 | 0.00 | 0.00 | 0.00 | 42 | 1020.0 |
| 20260503190058 | 70 | 209 | 4.0 | 13.0 | 0.00 | 0.00 | 0.00 | 40 | 1020.4 |
| 20260503184614 | 70 | 176 | 4.0 | 10.0 | 0.00 | 0.00 | 0.00 | 40 | 1020.7 |
| 20260503183049 | 69 | 278 | 0.0 | 10.0 | 0.00 | 0.00 | 0.00 | 43 | 1020.9 |
| 20260503181550 | 68 | 218 | 3.0 | 12.0 | 0.00 | 0.00 | 0.00 | 43 | 1021.0 |
| 20260503180046 | 68 | 248 | 1.0 | 6.0 | 0.00 | 0.00 | 0.00 | 42 | 1021.0 |
| 20260503174600 | 67 | 273 | 4.0 | 10.0 | 0.00 | 0.00 | 0.00 | 48 | 1021.4 |
| 20260503173043 | 67 | 219 | 0.0 | 9.0 | 0.00 | 0.00 | 0.00 | 44 | 1021.7 |
| 20260503171542 | 67 | 200 | 0.0 | 5.0 | 0.00 | 0.00 | 0.00 | 45 | 1022.0 |
| 20260503081538 | 40 | 302 | 0.0 | 0.0 | 0.00 | 0.00 | 0.00 | 94 | 1021.4 |
| 20260503071530 | 41 | 302 | 0.0 | 0.0 | 0.00 | 0.00 | 0.00 | 93 | 1021.2 |
| 20260503054519 | 43 | 302 | 0.0 | 0.0 | 0.00 | 0.00 | 0.00 | 90 | 1021.3 |
| 20260503053006 | 44 | 302 | 0.0 | 0.0 | 0.00 | 0.00 | 0.00 | 89 | 1021.4 |
| 20260503051503 | 44 | 302 | 0.0 | 0.0 | 0.00 | 0.00 | 0.00 | 88 | 1021.1 |
| 20260503050003 | 45 | 302 | 0.0 | 0.0 | 0.00 | 0.00 | 0.00 | 87 | 1021.0 |
| 20260503044605 | 46 | 302 | 0.0 | 0.0 | 0.00 | 0.00 | 0.00 | 87 | 1021.1 |
| 20260503043100 | 46 | 302 | 0.0 | 0.0 | 0.00 | 0.00 | 0.00 | 86 | 1021.0 |
| 20260503041557 | 47 | 302 | 0.0 | 0.0 | 0.00 | 0.00 | 0.00 | 83 | 1020.8 |
| 20260503040056 | 48 | 302 | 0.0 | 0.0 | 0.00 | 0.00 | 0.00 | 82 | 1020.6 |
| 20260503034557 | 49 | 302 | 0.0 | 0.0 | 0.00 | 0.00 | 0.00 | 80 | 1020.7 |
| 20260503033059 | 50 | 302 | 0.0 | 0.0 | 0.00 | 0.00 | 0.00 | 79 | 1020.7 |
| 20260503031554 | 51 | 302 | 0.0 | 0.0 | 0.00 | 0.00 | 0.00 | 76 | 1020.7 |
| 20260503030053 | 51 | 302 | 0.0 | 0.0 | 0.00 | 0.00 | 0.00 | 75 | 1020.6 |
| 20260503024553 | 52 | 302 | 0.0 | 1.0 | 0.00 | 0.00 | 0.00 | 73 | 1020.6 |
| 20260503023051 | 54 | 302 | 0.0 | 1.0 | 0.00 | 0.00 | 0.00 | 70 | 1020.5 |
| 20260503021552 | 55 | 302 | 0.0 | 2.0 | 0.00 | 0.00 | 0.00 | 68 | 1020.1 |
| 20260503020048 | 55 | 269 | 0.0 | 2.0 | 0.00 | 0.00 | 0.00 | 67 | 1019.9 |
| 20260503014601 | 56 | 302 | 0.0 | 2.0 | 0.00 | 0.00 | 0.00 | 67 | 1019.7 |
| 20260503013046 | 57 | 296 | 0.0 | 2.0 | 0.00 | 0.00 | 0.00 | 65 | 1019.3 |
| 20260503011552 | 58 | 71 | 1.0 | 3.0 | 0.00 | 0.00 | 0.00 | 62 | 1019.1 |
| 20260503010042 | 59 | 334 | 0.0 | 3.0 | 0.00 | 0.00 | 0.00 | 61 | 1018.9 |
| 20260503004541 | 60 | 168 | 2.0 | 6.0 | 0.00 | 0.00 | 0.00 | 59 | 1018.6 |
| 20260503003042 | 61 | 315 | 2.0 | 7.0 | 0.00 | 0.00 | 0.00 | 55 | 1018.4 |
| 20260503001540 | 62 | 214 | 0.0 | 6.0 | 0.00 | 0.00 | 0.00 | 47 | 1018.0 |
| 20260503000040 | 62 | 276 | 1.0 | 3.0 | 0.00 | 0.00 | 0.00 | 48 | 1017.8 |